Skip Page Navigation
NASA JPL Caltech
NASA Logo - Jet Propulsion Laboratory + View the NASA Portal
+ Near-Earth Object (NEO) Program
Search JPL
JPL Home Earth Solar System Stars & Galaxies Technology
JPL Solar System Dynamics
BODIES ORBITS EPHEMERIDES TOOLS PHYSICAL DATA DISCOVERY FAQ SITE MAP
JPL Small-Body Database Browser
Search: [ help ]  
5471 Tunguska (1988 PK1)
Classification: Main-belt Asteroid          SPK-ID: 2005471
Ephemeris | Orbit Diagram | Orbital Elements | Physical Parameters | Discovery Circumstances | Close-Approach Data ]

[ hide orbit diagram ]
Orbit Diagram
Note: Make sure you have Java enabled on your browser to see the applet. This applet is provided as a 3D orbit visualization tool. The applet was implemented using 2-body methods, and hence should not be used for determining accurate long-term trajectories (over several years or decades) or planetary encounter circumstances. For accurate long-term ephemerides, please instead use our Horizons system.
Orbit Viewer

Additional Notes: the orbits shown in the applet are color coded. The planets are white lines, and the asteroid/comet is a blue line. The bright white line indicates the portion of the orbit that is above the ecliptic plane, and the darker portion is below the ecliptic plane. Likewise for the asteroid/comet orbit, the light blue indicates the portion above the ecliptic plane, and the dark blue the portion below the ecliptic plane.

Orbit Viewer applet originally written and kindly provided by Osamu Ajiki (AstroArts), and further modified by Ron Baalke (JPL).


Orbital Elements at Epoch 2456400.5 (2013-Apr-18.0) TDB
Reference: JPL 1 (heliocentric ecliptic J2000)
 Element Value Uncertainty (1-sigma)   Units 
e .07438624354980185 8.3139e-08  
a 2.997041769722879 3.8957e-08 AU
q 2.774103090711344 2.5608e-07 AU
i 9.313125505118338 9.7679e-06 deg
node 250.3339797568676 5.3857e-05 deg
peri 30.5190789561336 9.1199e-05 deg
M 314.6625031085024 7.8424e-05 deg
tp 2456639.167156283879
(2013-Dec-12.66715628)
0.000414 JED
period 1895.123951545494
5.19
3.6951e-05
1.012e-07
d
yr
n .1899611894548724 3.7039e-09 deg/d
Q 3.219980448734414 4.1855e-08 AU
  Orbit Determination Parameters
   # obs. used (total)      821  
   data-arc span      29334 days (80.31 yr)  
   first obs. used      1932-12-23  
   last obs. used      2013-04-16  
   planetary ephem.      DE405  
   SB-pert. ephem.      SB405-CPV-2  
   condition code      0  
   fit RMS      .56811  
   data source      ORB  
   producer      Otto Matic  
   solution date      2013-Apr-29 13:16:59  

Additional Information
 Earth MOID = 1.76249 AU 
 T_jup = 3.230 
[ show covariance matrix ]

Ephemeris | Orbit Diagram | Orbital Elements | Physical Parameters | Discovery Circumstances | Close-Approach Data ]

Physical Parameter Table
Parameter Symbol Value Units Sigma Reference Notes
absolute magnitude H 12.0 mag n/a PDS3 (MPC 28113)  

5471 Tunguska (1988 PK1)          Discovered 1988-Aug-13 by Elst, E. W. at Haute Provence
Reference: DISCOVERY.DBLast Updated: 2003-08-29

[ show close-approach data ]
Alternate Designations
 1988 PK1 = 1932 YN = 1976 FE = 1991 BC 
Ephemeris | Orbit Diagram | Orbital Elements | Physical Parameters | Discovery Circumstances | Close-Approach Data ]
ABOUT SSD CREDITS/AWARDS PRIVACY/COPYRIGHT GLOSSARY LINKS
FirstGov 2013-May-21 21:55 UT
(server date/time)  
NASA Home Page
Site Manager:   Donald K. Yeomans
Webmaster  Alan B. Chamberlin